Simultaneous Nadir Overpasses (SNOs) Predictions

Prediction of SNOs between NOAA-19 and METOP-C Satellite Orbit:

Table of predicted SNOs for the next 14.0 days since TLE Epoch: 3/11/2023
Index Date (NOAA-19) Time (NOAA-19) Lat,Lon (NOAA-19) SZA (NOAA-19 ) Date (METOP-C) Time (METOP-C) Lat,Lon (METOP-C) SZA (METOP-C ) Distance(km) Time Diff (sec)
1 03/19/2023 06:05:08 80.93, 123.33 82.97 03/19/2023 06:06:15 80.93, 123.47 83.01 2.47 67
2 03/19/2023 06:56:03 -80.93, -69.07 97.02 03/19/2023 06:56:57 -80.93, -69.21 97.01 2.43 54
3 03/19/2023 07:47:05 80.93, 98.32 82.99 03/19/2023 07:47:35 80.94, 98.31 83.00 0.92 30
4 03/19/2023 08:38:01 -80.93, -94.45 97.04 03/19/2023 08:38:17 -80.94, -94.37 97.02 1.65 16
5 03/19/2023 09:29:04 80.93, 72.94 82.97 03/19/2023 09:28:57 80.93, 72.79 82.95 2.64 7
6 03/19/2023 10:20:00 -80.93,-119.83 97.05 03/19/2023 10:19:39 -80.93,-119.89 97.07 1.10 21
7 03/19/2023 11:11:03 80.93, 47.56 82.95 03/19/2023 11:10:18 80.94, 47.63 82.95 1.53 45



Historial Predications of SNOs between NOAA-19 and METOP-C
